Weather History for KTWM - July, 2013

Change the Weather History Date:

Sunday, July 28, 2013

  Actual Average Record
Temperature  
Mean Temperature 59 °F -  
Max Temperature 68 °F 73 °F 95 °F (2006)
Min Temperature 50 °F 55 °F 46 °F (1979)
Degree Days  
Heating Degree Days 6    
Growing Degree Days 9 (Base 50)    
Moisture  
Dew Point 48 °F    
Average Humidity 73    
Maximum Humidity 87    
Minimum Humidity 49    
Precipitation  
Precipitation 0.00 in - - ()
Sea Level Pressure  
Sea Level Pressure 29.95 in    
Wind  
Wind Speed 5 mph (NNW)    
Max Wind Speed 12 mph    
Max Gust Speed 21 mph    
Visibility 10 miles    
Events      
Averages and records for this station are not official NWS values.
T = Trace of Precipitation, MM = Missing Value Source: NWS Daily Summary

Daily Weather History Graph

Daily Weather History Graph

Search for Another Location

Airport or City:

Trip Planner

Search our weather history database for the weather conditions in past years. The results will help you decide how hot, cold, wet, or windy it might be!

Date:

Astronomy

Jul. 28, 2013 Rise Set
Actual Time 5:41 AM CDT 8:44 PM CDT
Civil Twilight 5:05 AM CDT 9:20 PM CDT
Nautical Twilight 4:18 AM CDT 10:06 PM CDT
Astronomical Twilight 3:21 AM CDT 11:03 PM CDT
Moon 11:34 PM CDT (7/28) 12:55 PM CDT (7/28)
Length of Visible Light 16h 14m
Length of Day
15h 02m
Waning Gibbous, 60% of the Moon is Illuminated
Jul 28
Waning Gibbous
Jul 29
Last Quarter
Aug 6
New
Aug 14
First Quarter
Aug 20
Full

Hourly Weather History & Observations

Time (CDT) Temp. Dew Point Humidity Pressure Visibility Wind Dir Wind Speed Gust Speed Precip Events Conditions
12:13 AM 51.8 °F 46.4 °F 82% 29.90 in 10.0 mi NNW 5.8 mph - N/A   Overcast
12:34 AM 51.8 °F 46.4 °F 82% 29.90 in 10.0 mi NNW 4.6 mph - N/A   Overcast
12:53 AM 51.8 °F 46.4 °F 82% 29.90 in 10.0 mi NNW 5.8 mph - N/A   Overcast
1:13 AM 51.8 °F 46.4 °F 82% 29.90 in 10.0 mi NNW 5.8 mph - N/A   Overcast
1:34 AM 51.8 °F 46.4 °F 82% 29.90 in 10.0 mi NNW 5.8 mph - N/A   Overcast
1:53 AM 51.8 °F 46.4 °F 82% 29.90 in 10.0 mi North 6.9 mph - N/A   Overcast
2:13 AM 51.8 °F 46.4 °F 82% 29.90 in 10.0 mi NNW 5.8 mph - N/A   Overcast
2:34 AM 51.8 °F 46.4 °F 82% 29.91 in 10.0 mi NNW 6.9 mph - N/A   Overcast
2:54 AM 51.8 °F 46.4 °F 82% 29.90 in 10.0 mi NNW 5.8 mph - N/A   Overcast
3:13 AM 51.8 °F 46.4 °F 82% 29.90 in 10.0 mi NNW 4.6 mph - N/A   Mostly Cloudy
3:34 AM 50.0 °F 46.4 °F 87% 29.90 in 10.0 mi NNW 3.5 mph - N/A   Overcast
3:54 AM 50.0 °F 46.4 °F 87% 29.90 in 10.0 mi North 5.8 mph - N/A   Overcast
4:13 AM 51.8 °F 46.4 °F 82% 29.90 in 10.0 mi North 5.8 mph - N/A   Overcast
4:34 AM 50.0 °F 46.4 °F 87% 29.90 in 10.0 mi NNW 3.5 mph - N/A   Overcast
4:54 AM 50.0 °F 44.6 °F 82% 29.90 in 10.0 mi North 3.5 mph - N/A   Overcast
5:13 AM 50.0 °F 46.4 °F 87% 29.91 in 10.0 mi NW 5.8 mph - N/A   Overcast
5:34 AM 50.0 °F 44.6 °F 82% 29.91 in 10.0 mi Calm Calm - N/A   Overcast
5:53 AM 50.0 °F 46.4 °F 87% 29.91 in 10.0 mi NW 3.5 mph - N/A   Overcast
6:13 AM 50.0 °F 44.6 °F 82% 29.92 in 10.0 mi NNW 3.5 mph - N/A   Overcast
6:34 AM 50.0 °F 46.4 °F 87% 29.91 in 10.0 mi NW 6.9 mph - N/A   Overcast
6:53 AM 51.8 °F 46.4 °F 82% 29.90 in 10.0 mi NNW 4.6 mph - N/A   Overcast
7:13 AM 51.8 °F 46.4 °F 82% 29.91 in 10.0 mi NNW 5.8 mph - N/A   Overcast
7:34 AM 51.8 °F 46.4 °F 82% 29.91 in 10.0 mi North 4.6 mph - N/A   Overcast
7:53 AM 51.8 °F 46.4 °F 82% 29.92 in 10.0 mi NW 6.9 mph - N/A   Overcast
8:13 AM 51.8 °F 46.4 °F 82% 29.93 in 10.0 mi Calm Calm - N/A   Overcast
8:34 AM 51.8 °F 46.4 °F 82% 29.92 in 10.0 mi WNW 3.5 mph - N/A   Overcast
8:53 AM 51.8 °F 46.4 °F 82% 29.92 in 10.0 mi NNW 9.2 mph - N/A   Overcast
9:13 AM 51.8 °F 46.4 °F 82% 29.93 in 10.0 mi North 5.8 mph - N/A   Overcast
9:34 AM 53.6 °F 46.4 °F 77% 29.92 in 10.0 mi NNW 5.8 mph - N/A   Overcast
9:53 AM 53.6 °F 46.4 °F 77% 29.93 in 10.0 mi NNW 4.6 mph - N/A   Overcast
10:13 AM 55.4 °F 46.4 °F 72% 29.92 in 10.0 mi NW 4.6 mph - N/A   Overcast
10:34 AM 55.4 °F 48.2 °F 77% 29.93 in 10.0 mi North 4.6 mph - N/A   Overcast
10:53 AM 57.2 °F 48.2 °F 72% 29.94 in 10.0 mi North 5.8 mph 18.4 mph N/A   Overcast
11:13 AM 57.2 °F 48.2 °F 72% 29.95 in 10.0 mi North 6.9 mph 17.3 mph N/A   Overcast
11:34 AM 57.2 °F 48.2 °F 72% 29.94 in 10.0 mi NW 3.5 mph 16.1 mph N/A   Mostly Cloudy
11:53 AM 59.0 °F 48.2 °F 67% 29.93 in 10.0 mi NNW 8.1 mph - N/A   Mostly Cloudy
12:13 PM 60.8 °F 51.8 °F 72% 29.93 in 10.0 mi North 11.5 mph 17.3 mph N/A   Scattered Clouds
12:33 PM 60.8 °F 51.8 °F 72% 29.92 in 10.0 mi NNW 8.1 mph 20.7 mph N/A   Scattered Clouds
12:53 PM 62.6 °F 51.8 °F 68% 29.93 in 10.0 mi NW 9.2 mph - N/A   Clear
1:13 PM 62.6 °F 51.8 °F 68% 29.93 in 10.0 mi NNW 6.9 mph - N/A   Scattered Clouds
1:33 PM 62.6 °F 51.8 °F 68% 29.94 in 10.0 mi NNW 4.6 mph - N/A   Mostly Cloudy
1:54 PM 64.4 °F 51.8 °F 64% 29.94 in 10.0 mi NW 9.2 mph - N/A   Mostly Cloudy
2:13 PM 64.4 °F 51.8 °F 64% 29.94 in 10.0 mi North 6.9 mph - N/A   Mostly Cloudy
2:33 PM 64.4 °F 51.8 °F 64% 29.95 in 10.0 mi NW 4.6 mph - N/A   Overcast
2:54 PM 66.2 °F 51.8 °F 60% 29.95 in 10.0 mi NW 4.6 mph - N/A   Mostly Cloudy
3:13 PM 64.4 °F 51.8 °F 64% 29.95 in 10.0 mi NNW 3.5 mph - N/A   Mostly Cloudy
3:33 PM 66.2 °F 51.8 °F 60% 29.95 in 10.0 mi North 8.1 mph - N/A   Overcast
3:54 PM 64.4 °F 51.8 °F 64% 29.95 in 10.0 mi North 6.9 mph - N/A   Overcast
4:13 PM 66.2 °F 50.0 °F 56% 29.95 in 10.0 mi NW 4.6 mph - N/A   Overcast
4:33 PM 66.2 °F 50.0 °F 56% 29.96 in 10.0 mi Calm Calm - N/A   Overcast
4:53 PM 68.0 °F 51.8 °F 56% 29.95 in 10.0 mi WNW 4.6 mph - N/A   Overcast
5:13 PM 68.0 °F 48.2 °F 49% 29.96 in 10.0 mi North 6.9 mph - N/A   Overcast
5:34 PM 66.2 °F 48.2 °F 52% 29.96 in 10.0 mi North 4.6 mph - N/A   Overcast
5:53 PM 66.2 °F 48.2 °F 52% 29.97 in 10.0 mi North 3.5 mph - N/A   Overcast
6:13 PM 66.2 °F 48.2 °F 52% 29.96 in 10.0 mi NNW 6.9 mph - N/A   Overcast
6:34 PM 66.2 °F 48.2 °F 52% 29.97 in 10.0 mi Calm Calm - N/A   Overcast
6:53 PM 66.2 °F 50.0 °F 56% 29.98 in 10.0 mi Calm Calm - N/A   Overcast
7:13 PM 64.4 °F 48.2 °F 56% 29.99 in 10.0 mi NNW 4.6 mph - N/A   Overcast
7:34 PM 64.4 °F 48.2 °F 56% 29.99 in 10.0 mi Calm Calm - N/A   Overcast
7:53 PM 62.6 °F 48.2 °F 59% 29.99 in 10.0 mi ENE 4.6 mph - N/A   Overcast
8:13 PM 60.8 °F 48.2 °F 63% 30.00 in 10.0 mi NE 3.5 mph - N/A   Overcast
8:34 PM 60.8 °F 48.2 °F 63% 30.00 in 10.0 mi Calm Calm - N/A   Overcast
8:53 PM 57.2 °F 48.2 °F 72% 30.01 in 10.0 mi Calm Calm - N/A   Overcast
9:13 PM 57.2 °F 48.2 °F 72% 30.02 in 10.0 mi Calm Calm - N/A   Overcast
9:34 PM 57.2 °F 50.0 °F 77% 30.03 in 10.0 mi Calm Calm - N/A   Overcast
9:53 PM 55.4 °F 50.0 °F 82% 30.03 in 10.0 mi Calm Calm - N/A   Overcast
10:13 PM 53.6 °F 48.2 °F 82% 30.03 in 10.0 mi Calm Calm - N/A   Scattered Clouds
10:34 PM 53.6 °F 48.2 °F 82% 30.03 in 10.0 mi NW 3.5 mph - N/A   Clear
10:53 PM 53.6 °F 48.2 °F 82% 30.03 in 10.0 mi NW 3.5 mph - N/A   Clear
11:13 PM 51.8 °F 46.4 °F 82% 30.03 in 10.0 mi NW 3.5 mph - N/A   Clear
11:34 PM 51.8 °F 46.4 °F 82% 30.03 in 10.0 mi WNW 4.6 mph - N/A   Clear
11:53 PM 51.8 °F 46.4 °F 82% 30.03 in 10.0 mi WNW 5.8 mph - N/A   Clear